VOE1305 LIEO-LIPY

Flight info

Callsign VOE1305
Flight time 0h 46m
Altitude 32000
Route BATOX DCT MAMAR DCT MEDAL DCT TIMOV DCT GIKIN/N0388F180 L865 ERLIT
Aircraft A319/M-SDE3FGHIRWY/LB1

Departure

Time 2026-04-15 06:52
Airport Olbia Costa Smeralda Airport (LIEO)

Arrival

Time 2026-04-15 07:39
Airport Marche Airport (LIPY)
Time Latitude Longitude Altitude Speed Heading
2026-04-15 06:31 40.90134 9.51710 47 ft 0 kts 83°
2026-04-15 06:46 40.90135 9.51716 47 ft 1 kts 69°
2026-04-15 06:46 40.90146 9.51721 47 ft 2 kts 350°
2026-04-15 06:46 40.90157 9.51697 47 ft 4 kts 298°
2026-04-15 06:46 40.90166 9.51653 47 ft 5 kts 260°
2026-04-15 06:47 40.90142 9.51600 47 ft 7 kts 236°
2026-04-15 06:47 40.90109 9.51537 47 ft 9 kts 235°
2026-04-15 06:47 40.90072 9.51485 47 ft 7 kts 189°
2026-04-15 06:47 40.90019 9.51514 47 ft 9 kts 162°
2026-04-15 06:48 40.89950 9.51504 47 ft 10 kts 198°
2026-04-15 06:48 40.89897 9.51426 47 ft 12 kts 236°
2026-04-15 06:48 40.89845 9.51328 47 ft 13 kts 236°
2026-04-15 06:48 40.89790 9.51221 47 ft 14 kts 236°
2026-04-15 06:49 40.89729 9.51107 47 ft 15 kts 236°
2026-04-15 06:49 40.89666 9.50985 47 ft 16 kts 236°
2026-04-15 06:49 40.89600 9.50859 47 ft 17 kts 236°
2026-04-15 06:50 40.89460 9.50592 47 ft 13 kts 236°
2026-04-15 06:50 40.89415 9.50505 47 ft 10 kts 236°
2026-04-15 06:50 40.89357 9.50441 47 ft 11 kts 193°
2026-04-15 06:50 40.89281 9.50477 47 ft 12 kts 114°
2026-04-15 06:51 40.89267 9.50587 47 ft 11 kts 92°
2026-04-15 06:51 40.89304 9.50686 47 ft 12 kts 55°
2026-04-15 06:51 40.89319 9.50714 47 ft 0 kts 56°
2026-04-15 06:51 40.89320 9.50716 47 ft 0 kts 56°
2026-04-15 06:52 40.89358 9.50790 47 ft 37 kts 54°
2026-04-15 06:52 40.89666 9.51376 47 ft 115 kts 55°
2026-04-15 06:52 40.90247 9.52468 246 ft 159 kts 52°
2026-04-15 06:52 40.90886 9.53584 1066 ft 154 kts 52°
2026-04-15 06:53 40.91480 9.54696 1890 ft 154 kts 53°
2026-04-15 06:53 40.92098 9.55912 2535 ft 168 kts 54°
2026-04-15 06:53 40.92784 9.57245 3105 ft 188 kts 54°
2026-04-15 06:53 40.93564 9.58738 3735 ft 207 kts 54°
2026-04-15 06:54 40.94412 9.60345 4438 ft 224 kts 54°
2026-04-15 06:54 40.95310 9.62037 5364 ft 231 kts 54°
2026-04-15 06:54 40.96227 9.63762 6368 ft 233 kts 54°
2026-04-15 06:54 40.97157 9.65511 7350 ft 236 kts 54°
2026-04-15 06:55 40.98091 9.67266 8309 ft 239 kts 54°
2026-04-15 06:55 40.98709 9.68465 8935 ft 241 kts 57°
2026-04-15 06:55 40.99957 9.71035 9839 ft 260 kts 57°
2026-04-15 06:55 41.00950 9.73096 10540 ft 273 kts 57°
2026-04-15 06:56 41.01989 9.75255 11072 ft 291 kts 57°
2026-04-15 06:56 41.03105 9.77576 11542 ft 309 kts 57°
2026-04-15 06:56 41.04297 9.80052 12027 ft 325 kts 57°
2026-04-15 06:56 41.05521 9.82600 12766 ft 332 kts 57°
2026-04-15 06:57 41.06746 9.85151 13587 ft 335 kts 58°
2026-04-15 06:57 41.08008 9.87783 14375 ft 339 kts 58°
2026-04-15 06:57 41.09267 9.90411 15096 ft 344 kts 58°
2026-04-15 06:57 41.10561 9.93118 15817 ft 349 kts 58°
2026-04-15 06:58 41.11861 9.95839 16540 ft 352 kts 58°
2026-04-15 06:58 41.13170 9.98582 17217 ft 357 kts 58°
2026-04-15 06:58 41.14492 10.01354 17878 ft 361 kts 58°
2026-04-15 06:58 41.15834 10.04172 18521 ft 365 kts 58°
2026-04-15 06:59 41.17198 10.07038 19185 ft 368 kts 58°
2026-04-15 06:59 41.18551 10.09882 19822 ft 371 kts 58°
2026-04-15 06:59 41.19929 10.12772 20438 ft 374 kts 57°
2026-04-15 06:59 41.21417 10.15617 21047 ft 377 kts 54°
2026-04-15 07:00 41.23046 10.18373 21647 ft 380 kts 51°
2026-04-15 07:00 41.24742 10.21058 22217 ft 383 kts 50°
2026-04-15 07:00 41.26462 10.23757 22768 ft 386 kts 50°
2026-04-15 07:00 41.28209 10.26498 23385 ft 387 kts 50°
2026-04-15 07:01 41.29935 10.29210 23965 ft 389 kts 50°
2026-04-15 07:01 41.31687 10.31967 24493 ft 392 kts 50°
2026-04-15 07:01 41.33456 10.34753 24988 ft 396 kts 50°
2026-04-15 07:01 41.35237 10.37560 25500 ft 398 kts 50°
2026-04-15 07:02 41.37004 10.40350 25984 ft 401 kts 50°
2026-04-15 07:02 41.38800 10.43189 26429 ft 404 kts 50°
2026-04-15 07:02 41.40625 10.46077 26887 ft 407 kts 51°
2026-04-15 07:02 41.42439 10.48952 27307 ft 410 kts 51°
2026-04-15 07:03 41.44289 10.51884 27724 ft 413 kts 51°
2026-04-15 07:03 41.46139 10.54821 28136 ft 416 kts 51°
2026-04-15 07:03 41.48006 10.57789 28543 ft 418 kts 51°
2026-04-15 07:03 41.49884 10.60775 28934 ft 421 kts 51°
2026-04-15 07:04 41.51764 10.63768 29323 ft 423 kts 51°
2026-04-15 07:04 41.53640 10.66757 29830 ft 423 kts 51°
2026-04-15 07:04 41.55517 10.69752 30400 ft 421 kts 51°
2026-04-15 07:04 41.57388 10.72738 30834 ft 421 kts 52°
2026-04-15 07:05 41.59266 10.75741 31158 ft 423 kts 51°
2026-04-15 07:05 41.61132 10.78730 31441 ft 425 kts 51°
2026-04-15 07:05 41.63042 10.81791 31734 ft 427 kts 51°
2026-04-15 07:05 41.64940 10.84834 31939 ft 428 kts 52°
2026-04-15 07:06 41.68746 10.90949 31958 ft 430 kts 52°
2026-04-15 07:06 41.72547 10.97069 31964 ft 430 kts 52°
2026-04-15 07:07 41.76378 11.03249 31970 ft 431 kts 52°
2026-04-15 07:07 41.80345 11.09195 31966 ft 433 kts 47°
2026-04-15 07:08 41.84786 11.14633 31966 ft 434 kts 42°
2026-04-15 07:08 41.89399 11.19801 31969 ft 433 kts 42°
2026-04-15 07:09 41.94049 11.25001 31963 ft 434 kts 42°
2026-04-15 07:09 41.98662 11.30178 31960 ft 435 kts 42°
2026-04-15 07:10 42.03301 11.35398 31966 ft 436 kts 42°
2026-04-15 07:10 42.07912 11.40669 31963 ft 436 kts 43°
2026-04-15 07:11 42.12475 11.46047 31962 ft 437 kts 43°
2026-04-15 07:11 42.17010 11.51407 31964 ft 437 kts 44°
2026-04-15 07:12 42.21589 11.56824 31966 ft 438 kts 44°
2026-04-15 07:12 42.26157 11.62239 31966 ft 439 kts 43°
2026-04-15 07:13 42.30744 11.67683 31967 ft 440 kts 44°
2026-04-15 07:13 42.35341 11.73149 31971 ft 442 kts 44°
2026-04-15 07:14 42.39946 11.78639 31971 ft 443 kts 44°
2026-04-15 07:14 42.44572 11.84169 31967 ft 444 kts 44°
2026-04-15 07:15 42.49161 11.89661 31970 ft 445 kts 44°
2026-04-15 07:15 42.53811 11.95223 31967 ft 446 kts 44°
2026-04-15 07:16 42.58459 12.00792 31970 ft 446 kts 44°
2026-04-15 07:16 42.62981 12.06482 31919 ft 446 kts 48°
2026-04-15 07:17 42.65129 12.09511 31643 ft 445 kts 49°
2026-04-15 07:17 42.67244 12.12553 31175 ft 442 kts 49°
2026-04-15 07:17 42.69329 12.15562 30532 ft 440 kts 49°
2026-04-15 07:17 42.71420 12.18580 29752 ft 440 kts 49°
2026-04-15 07:18 42.73495 12.21581 28955 ft 439 kts 49°
2026-04-15 07:18 42.75573 12.24590 28290 ft 436 kts 49°
2026-04-15 07:18 42.77654 12.27604 27790 ft 432 kts 49°
2026-04-15 07:18 42.79680 12.30538 27278 ft 429 kts 49°
2026-04-15 07:19 42.81714 12.33486 26755 ft 425 kts 49°
2026-04-15 07:19 42.83715 12.36390 26230 ft 421 kts 49°
2026-04-15 07:19 42.85700 12.39272 25706 ft 418 kts 49°
2026-04-15 07:19 42.87679 12.42154 25185 ft 414 kts 49°
2026-04-15 07:20 42.89619 12.44981 24661 ft 411 kts 49°
2026-04-15 07:20 42.91566 12.47823 24127 ft 407 kts 49°
2026-04-15 07:20 42.93475 12.50612 23608 ft 403 kts 49°
2026-04-15 07:20 42.95377 12.53396 23095 ft 400 kts 49°
2026-04-15 07:21 42.97258 12.56151 22582 ft 397 kts 49°
2026-04-15 07:21 42.99133 12.58901 22068 ft 393 kts 49°
2026-04-15 07:21 43.00989 12.61624 21559 ft 390 kts 49°
2026-04-15 07:21 43.02807 12.64294 21059 ft 386 kts 49°
2026-04-15 07:22 43.04637 12.66985 20555 ft 383 kts 49°
2026-04-15 07:22 43.06418 12.69596 20060 ft 380 kts 49°
2026-04-15 07:22 43.08229 12.72246 19555 ft 377 kts 49°
2026-04-15 07:22 43.09996 12.74835 19066 ft 374 kts 49°
2026-04-15 07:23 43.11749 12.77407 18578 ft 372 kts 49°
2026-04-15 07:23 43.13502 12.79984 18087 ft 369 kts 49°
2026-04-15 07:23 43.15240 12.82542 17586 ft 367 kts 49°
2026-04-15 07:23 43.16987 12.85116 17092 ft 365 kts 49°
2026-04-15 07:24 43.18688 12.87626 16609 ft 363 kts 49°
2026-04-15 07:24 43.20409 12.90164 16114 ft 361 kts 49°
2026-04-15 07:24 43.22109 12.92678 15626 ft 360 kts 49°
2026-04-15 07:24 43.23782 12.95157 15137 ft 358 kts 49°
2026-04-15 07:25 43.25462 12.97651 14660 ft 357 kts 49°
2026-04-15 07:25 43.27134 13.00135 14168 ft 355 kts 49°
2026-04-15 07:25 43.28817 13.02638 13670 ft 353 kts 49°
2026-04-15 07:25 43.30472 13.05090 13183 ft 351 kts 49°
2026-04-15 07:26 43.32131 13.07529 12705 ft 348 kts 49°
2026-04-15 07:26 43.33776 13.09944 12216 ft 346 kts 49°
2026-04-15 07:26 43.35399 13.12332 11750 ft 343 kts 49°
2026-04-15 07:26 43.37012 13.14711 11280 ft 340 kts 49°
2026-04-15 07:27 43.38613 13.17073 10844 ft 336 kts 49°
2026-04-15 07:27 43.40166 13.19379 10607 ft 323 kts 49°
2026-04-15 07:27 43.41658 13.21602 10450 ft 310 kts 50°
2026-04-15 07:27 43.43091 13.23741 10297 ft 298 kts 50°
2026-04-15 07:28 43.44463 13.25792 10153 ft 286 kts 50°
2026-04-15 07:28 43.45790 13.27779 9985 ft 278 kts 50°
2026-04-15 07:28 43.47076 13.29711 9624 ft 277 kts 50°
2026-04-15 07:28 43.48378 13.31666 9270 ft 275 kts 50°
2026-04-15 07:29 43.49669 13.33604 8924 ft 273 kts 50°
2026-04-15 07:29 43.50934 13.35503 8596 ft 270 kts 50°
2026-04-15 07:29 43.52207 13.37417 8274 ft 268 kts 50°
2026-04-15 07:29 43.53452 13.39289 7957 ft 265 kts 50°
2026-04-15 07:30 43.54695 13.41160 7630 ft 263 kts 50°
2026-04-15 07:30 43.55915 13.42995 7304 ft 261 kts 50°
2026-04-15 07:30 43.57136 13.44834 6978 ft 259 kts 50°
2026-04-15 07:30 43.58342 13.46649 6661 ft 257 kts 50°
2026-04-15 07:31 43.59565 13.48466 6346 ft 255 kts 49°
2026-04-15 07:31 43.60769 13.50222 6027 ft 253 kts 49°
2026-04-15 07:31 43.61972 13.51974 5716 ft 251 kts 49°
2026-04-15 07:31 43.63158 13.53705 5394 ft 252 kts 49°
2026-04-15 07:32 43.64375 13.55484 5032 ft 254 kts 49°
2026-04-15 07:32 43.65579 13.57247 4689 ft 254 kts 49°
2026-04-15 07:32 43.66795 13.59027 4339 ft 252 kts 49°
2026-04-15 07:32 43.67988 13.60774 3989 ft 251 kts 49°
2026-04-15 07:33 43.69194 13.62480 3638 ft 250 kts 42°
2026-04-15 07:33 43.70758 13.63537 3282 ft 254 kts 13°
2026-04-15 07:33 43.72512 13.63385 2950 ft 258 kts 344°
2026-04-15 07:33 43.74029 13.62104 2655 ft 257 kts 322°
2026-04-15 07:34 43.75280 13.60386 2486 ft 247 kts 315°
2026-04-15 07:34 43.76277 13.58561 2462 ft 234 kts 295°
2026-04-15 07:34 43.76505 13.56420 2456 ft 219 kts 258°
2026-04-15 07:34 43.75881 13.54638 2449 ft 201 kts 218°
2026-04-15 07:35 43.74780 13.53528 2485 ft 197 kts 207°
2026-04-15 07:35 43.73646 13.52462 2482 ft 198 kts 212°
2026-04-15 07:35 43.72612 13.51272 2530 ft 184 kts 218°
2026-04-15 07:35 43.71736 13.50102 2471 ft 169 kts 220°
2026-04-15 07:36 43.70923 13.48968 2336 ft 163 kts 220°
2026-04-15 07:36 43.70134 13.47873 2116 ft 161 kts 220°
2026-04-15 07:36 43.69341 13.46782 1902 ft 161 kts 220°
2026-04-15 07:36 43.68548 13.45697 1707 ft 158 kts 220°
2026-04-15 07:37 43.67795 13.44664 1486 ft 146 kts 220°
2026-04-15 07:37 43.67083 13.43692 1289 ft 144 kts 221°
2026-04-15 07:37 43.66378 13.42727 1102 ft 143 kts 221°
2026-04-15 07:37 43.65676 13.41767 918 ft 141 kts 222°
2026-04-15 07:38 43.64976 13.40808 733 ft 139 kts 222°
2026-04-15 07:38 43.64293 13.39873 550 ft 137 kts 223°
2026-04-15 07:38 43.63625 13.38959 370 ft 134 kts 224°
2026-04-15 07:38 43.62976 13.38073 182 ft 131 kts 224°
2026-04-15 07:39 43.62329 13.37190 31 ft 127 kts 224°
2026-04-15 07:39 43.61775 13.36429 33 ft 93 kts 226°
2026-04-15 07:39 43.61442 13.35967 39 ft 43 kts 226°
2026-04-15 07:39 43.61292 13.35761 40 ft 27 kts 224°
2026-04-15 07:40 43.61177 13.35605 42 ft 19 kts 224°
2026-04-15 07:40 43.61068 13.35557 43 ft 16 kts 179°
2026-04-15 07:40 43.60965 13.35558 43 ft 12 kts 179°
2026-04-15 07:40 43.60896 13.35540 44 ft 9 kts 217°
2026-04-15 07:41 43.60861 13.35511 45 ft 5 kts 169°
2026-04-15 07:41 43.60835 13.35540 45 ft 4 kts 133°
2026-04-15 07:41 43.60828 13.35551 45 ft 0 kts 134°